Regional Weather Roundup
Issued by NWS Newport/Morehead, NC

Current Version | Previous Version | Graphics & Text | Print | Product List | Glossary On
Versions: 1 2 3 4 5 6 7 8 9 10 11 12 13 14 15 16 17 18 19 20 21 22 23 24 25 26 27 28 29 30 31 32 33 34 35 36 37 38 39 40 41 42 43 44 45 46 47 48 49 50
658 ASUS42 KMHX 240125 RWRMHX WEATHER ROUNDUP FOR EASTERN NORTH CAROLINA NATIONAL WEATHER SERVICE NEWPORT/MOREHEAD CITY NC 800 PM EST TUE JAN 23 2018 NOTE: "FAIR" INDICATES FEW OR NO CLOUDS BELOW 12,000 FEET WITH NO SIGNIFICANT WEATHER AND/OR OBSTRUCTIONS TO VISIBILITY NCZ015>017-031-032-045>047-102-103-240200- NORTH COAST CITY SKY/WX TMP DP RH WIND PRES REMARKS EDENTON FAIR 64 36 35 W8 29.80R ELIZABETH CITY FAIR 62 52 69 W12 29.78R KITTY HAWK FAIR N/A N/A N/A SW6 29.77R MANTEO FOG 49 49 100 CALM 29.79R VSB 1/4 $$ NCZ045>047-081-094-103-104-240200- CENTRAL COAST CITY SKY/WX TMP DP RH WIND PRES REMARKS FRISCO NOT AVBL $$ NCZ095-097-098-100-101-240200- SOUTHERN COAST CITY SKY/WX TMP DP RH WIND PRES REMARKS BEAUFORT FOG 52 32 46 SW13 29.85R VSB 1/2 CEDAR ISLAND NOT AVBL JACKSONVILLE FAIR 60 56 86 SW8 29.85R PINEY ISLAND NOT AVBL WILMINGTON FAIR 55 47 74 SW8 29.88R $$ NCZ011>013-027>030-043-044-078>080-089-090>093-098-240200- COASTAL PLAIN CITY SKY/WX TMP DP RH WIND PRES REMARKS AHOSKIE FAIR 57 33 40 CALM 29.83R CLINTON FAIR 59 32 35 W8 29.89R ELIZABETHTOWN NOT AVBL GOLDSBORO FAIR 60 29 31 W18G24 29.84R GREENVILLE FAIR 61 30 31 W9 29.87R HAVELOCK CLEAR 56 55 97 SW3 29.84R KENANSVILLE FAIR 61 28 29 W12G18 29.87R KINSTON FAIR 63 28 27 W10G18 29.86R NEW BERN FAIR 57 51 80 SW7 29.84R RICHLANDS FAIR 62 38 40 W8 29.87R ROCKY MOUNT FAIR 56 32 40 W6 29.85R WASHINGTON FAIR 60 32 34 W9 29.83R WHITEVILLE FAIR 61 32 34 W6 29.91R $$ AMZ130-135-150-152-154-156-158-170-250-252-270-ANZ085-086-088-633-658-670-240200- MARINE OBSERVATIONS STATION/POSITION TIME TEMP WIND PRES WAVE SWELL AIR SEA DIR/SP/G HT/PER HT/PER (UTC) (F) (DEG/KT/KT) (MB) (FT/S) (FT/S) CHESAPEAKE LIGHT NOT AVBL 64 E VA BEACH 0050 57 56 230/ 17/ 21 1007.3 9/ 8 DUCK 0100 56 41 240/ 9/ 13 1007.7 2 E DUCK 0100 42 N/A 3/ 8 OREGON INLET 0100 48 47 220/ 10/ 12 1008.7 13E OREGON INLT 0048 41 N/A 7/ 8 5/ 8 HATTERAS CG 0100 58 55 240/ 14/ 25 1009.3 DIAMOND BUOY 0100 67 230/ 25/ 35 1009.9 CAPE LOOKOUT 0100 230/ 15/ 21 1010.7 BEAUFORT LAB 0100 51 50 250/ 8/ 14 1010.8 30 SE NEW RVR IN 0108 59 58 230/ 17/ 25 1011.4 30 SE NEW RVR IN 0100 58 N/A 9/ 8 2/11 27 SE WRIGHTSVLE 0008 58 61 240/ 17/ 23 1011.3 5 SE WRIGHTSVLE 0108 51 47 240/ 8/ 12 1011.5 225 S CAPE HAT 0050 72 70 200/ 17/ 21 1015.5 7/ 7 41 SE CHARLESTON 0100 67 260/ 19/ 23 1015.1 $$

USA.gov is the U.S. government's official web portal to all federal, state and local government web resources and services.